Terminal Aerodrome Forecast
Issued by NWS Charleston, WV

Home | Current Version | Previous Version | Text Only | Print | Product List | Glossary On
Versions: 1 2 3 4 5 6 7 8 9 10 11 12 13 14 15 16 17 18 19 20 21 22 23 24 25 26
000
FTUS41 KRLX 062300
TAFHTS
TAF
KHTS 062332Z 0700/0724 00000KT P6SM FEW250
     FM071100 20004KT P6SM SCT150
     FM071800 21008KT P6SM SCT130=

USA.gov is the U.S. government's official web portal to all federal, state and local government web resources and services.